Weather History for Smithfield, NC

Change the Weather History Date:

Sunday, December 2, 2012

  Actual Average Record
Temperature  
Mean Temperature 50 °F -  
Max Temperature 68 °F 59 °F 76 °F (1991)
Min Temperature 33 °F 33 °F 17 °F (1964)
Degree Days  
Heating Degree Days 14    
Moisture  
Dew Point 43 °F    
Average Humidity 85    
Maximum Humidity 100    
Minimum Humidity 46    
Precipitation  
Precipitation 0.00 in - - ()
Sea Level Pressure  
Sea Level Pressure 30.33 in    
Wind  
Wind Speed 1 mph (South)    
Max Wind Speed 13 mph    
Max Gust Speed 16 mph    
Visibility 7 miles    
Events      
Averages and records for this station are not official NWS values.
T = Trace of Precipitation, MM = Missing Value Source: NWS Daily Summary

Daily Weather History Graph

Daily Weather History Graph

Search for Another Location

Airport:

Trip Planner

Search our weather history database for the weather conditions in past years. The results will help you decide how hot, cold, wet, or windy it might be!

Date:

Astronomy

Dec. 02, 2012 Rise Set
Actual Time 7:05 AM EST 5:00 PM EST
Civil Twilight 6:37 AM EST 5:28 PM EST
Nautical Twilight 6:06 AM EST 6:00 PM EST
Astronomical Twilight 5:35 AM EST 6:30 PM EST
Moon 8:42 PM EST (12/2) 9:57 AM EST (12/2)
Length of Visible Light 10h 50m
Length of Day
9h 54m
Waning Gibbous, 86% of the Moon is Illuminated
Dec 2
Waning Gibbous
Dec 6
Last Quarter
Dec 13
New
Dec 20
First Quarter
Dec 28
Full

Hourly Weather History & Observations

Time (EST) Temp. Dew Point Humidity Pressure Visibility Wind Dir Wind Speed Gust Speed Precip Events Conditions
12:15 AM 35.6 °F 35.6 °F 100% 30.38 in 7.0 mi Calm Calm - N/A   Clear
12:35 AM 33.8 °F 33.8 °F 100% 30.38 in 7.0 mi Calm Calm - N/A   Clear
12:55 AM 33.8 °F 33.8 °F 100% 30.38 in 7.0 mi Calm Calm - N/A   Clear
1:15 AM 33.8 °F 33.8 °F 100% 30.38 in 7.0 mi Calm Calm - N/A   Clear
1:35 AM 33.8 °F 33.8 °F 100% 30.38 in 7.0 mi Calm Calm - N/A   Clear
1:55 AM 33.8 °F 33.8 °F 100% 30.39 in 5.0 mi Calm Calm - N/A   Clear
2:15 AM 33.8 °F 33.8 °F 100% 30.39 in 7.0 mi Calm Calm - N/A   Clear
2:35 AM 33.8 °F 33.8 °F 100% 30.39 in 7.0 mi Calm Calm - N/A   Clear
2:55 AM 33.8 °F 33.8 °F 100% 30.38 in 7.0 mi Calm Calm - N/A   Clear
3:15 AM 33.8 °F 33.8 °F 100% 30.38 in 7.0 mi Calm Calm - N/A   Mostly Cloudy
3:35 AM 33.8 °F 33.8 °F 100% 30.37 in 7.0 mi Calm Calm - N/A   Overcast
3:55 AM 33.8 °F 33.8 °F 100% 30.38 in 0.5 mi Calm Calm - N/A   Overcast
4:15 AM 33.8 °F 33.8 °F 100% 30.37 in 0.5 mi Calm Calm - N/A   Overcast
4:35 AM 33.8 °F 33.8 °F 100% 30.37 in 0.5 mi Calm Calm - N/A   Overcast
4:55 AM 33.8 °F 33.8 °F 100% 30.37 in 0.2 mi Calm Calm - N/A   Overcast
5:15 AM 33.8 °F 33.8 °F 100% 30.37 in 0.2 mi Calm Calm - N/A   Overcast
5:35 AM 33.8 °F 33.8 °F 100% 30.38 in 0.2 mi Calm Calm - N/A   Overcast
5:55 AM 33.8 °F 33.8 °F 100% 30.38 in 0.2 mi Calm Calm - N/A   Overcast
6:15 AM 33.8 °F 33.8 °F 100% 30.39 in 0.2 mi Calm Calm - N/A   Overcast
6:35 AM 33.8 °F 33.8 °F 100% 30.39 in 0.2 mi Calm Calm - N/A   Overcast
6:55 AM 33.8 °F 33.8 °F 100% 30.40 in 0.2 mi Calm Calm - N/A   Overcast
7:15 AM 33.8 °F 33.8 °F 100% 30.39 in 0.2 mi Calm Calm - N/A   Overcast
7:35 AM 35.6 °F 35.6 °F 100% 30.40 in 0.2 mi Calm Calm - N/A   Overcast
7:55 AM 35.6 °F 35.6 °F 100% 30.41 in 0.2 mi Calm Calm - N/A   Overcast
8:15 AM 37.4 °F 37.4 °F 100% 30.40 in 0.2 mi Calm Calm - N/A   Overcast
8:35 AM 37.4 °F 37.4 °F 100% 30.41 in 0.5 mi Calm Calm - N/A   Overcast
8:55 AM 39.2 °F 39.2 °F 100% 30.41 in 0.2 mi Calm Calm - N/A   Overcast
9:15 AM 41.0 °F 41.0 °F 100% 30.41 in 2.0 mi Calm Calm - N/A   Overcast
9:35 AM 44.6 °F 44.6 °F 100% 30.41 in 7.0 mi Calm Calm - N/A   Scattered Clouds
9:55 AM 48.2 °F 48.2 °F 100% 30.41 in 10.0 mi Calm Calm - N/A   Clear
10:15 AM 50.0 °F 50.0 °F 100% 30.41 in 10.0 mi Calm Calm - N/A   Clear
10:35 AM 51.8 °F 51.8 °F 100% 30.39 in 10.0 mi Calm Calm - N/A   Clear
10:55 AM 53.6 °F 53.6 °F 100% 30.38 in 10.0 mi Calm Calm - N/A   Clear
11:15 AM 55.4 °F 53.6 °F 94% 30.37 in 10.0 mi Calm Calm - N/A   Clear
11:35 AM 59.0 °F 50.0 °F 72% 30.35 in 10.0 mi Calm Calm - N/A   Clear
11:55 AM 60.8 °F 50.0 °F 68% 30.34 in 10.0 mi Calm Calm - N/A   Scattered Clouds
12:15 PM 62.6 °F 50.0 °F 63% 30.33 in 10.0 mi South 3.5 mph - N/A   Mostly Cloudy
12:35 PM 64.4 °F 48.2 °F 56% 30.33 in 10.0 mi South 8.1 mph - N/A   Mostly Cloudy
12:55 PM 64.4 °F 50.0 °F 59% 30.32 in 10.0 mi SSE 5.8 mph - N/A   Mostly Cloudy
1:15 PM 64.4 °F 48.2 °F 56% 30.31 in 10.0 mi South 10.4 mph - N/A   Scattered Clouds
1:35 PM 66.2 °F 46.4 °F 49% 30.30 in 10.0 mi SSW 10.4 mph 16.1 mph N/A   Scattered Clouds
1:55 PM 66.2 °F 46.4 °F 49% 30.28 in 10.0 mi SSW 9.2 mph - N/A   Overcast
2:15 PM 68.0 °F 46.4 °F 46% 30.28 in 10.0 mi South 8.1 mph - N/A   Mostly Cloudy
2:35 PM 68.0 °F 46.4 °F 46% 30.28 in 10.0 mi South 12.7 mph - N/A   Mostly Cloudy
2:55 PM 68.0 °F 46.4 °F 46% 30.28 in 10.0 mi South 12.7 mph - N/A   Overcast
3:15 PM 68.0 °F 46.4 °F 46% 30.28 in 10.0 mi South 8.1 mph - N/A   Mostly Cloudy
3:35 PM 66.2 °F 46.4 °F 49% 30.27 in 10.0 mi SSW 5.8 mph - N/A   Scattered Clouds
3:55 PM 68.0 °F 46.4 °F 46% 30.27 in 10.0 mi SSW 9.2 mph - N/A   Clear
4:15 PM 66.2 °F 46.4 °F 49% 30.27 in 10.0 mi SSW 5.8 mph - N/A   Clear
4:35 PM 64.4 °F 46.4 °F 52% 30.27 in 10.0 mi SSW 3.5 mph - N/A   Clear
4:55 PM 60.8 °F 46.4 °F 59% 30.27 in 10.0 mi South 4.6 mph - N/A   Clear
5:15 PM 59.0 °F 46.4 °F 63% 30.27 in 10.0 mi South 4.6 mph - N/A   Clear
5:35 PM 59.0 °F 46.4 °F 63% 30.26 in 10.0 mi South 6.9 mph - N/A   Clear
5:55 PM 57.2 °F 48.2 °F 72% 30.26 in 10.0 mi South 5.8 mph - N/A   Clear
6:15 PM 57.2 °F 48.2 °F 72% 30.27 in 10.0 mi South 5.8 mph - N/A   Clear
6:35 PM 55.4 °F 48.2 °F 77% 30.27 in 10.0 mi South 3.5 mph - N/A   Clear
6:55 PM 53.6 °F 46.4 °F 77% 30.27 in 10.0 mi Calm Calm - N/A   Clear
7:15 PM 55.4 °F 48.2 °F 77% 30.27 in 10.0 mi Calm Calm - N/A   Clear
7:35 PM 53.6 °F 48.2 °F 82% 30.27 in 10.0 mi South 4.6 mph - N/A   Clear
7:55 PM 55.4 °F 50.0 °F 82% 30.27 in 10.0 mi Calm Calm - N/A   Clear
8:15 PM 55.4 °F 50.0 °F 82% 30.27 in 10.0 mi Calm Calm - N/A   Clear
8:35 PM 53.6 °F 50.0 °F 88% 30.28 in 10.0 mi Calm Calm - N/A   Clear
8:55 PM 50.0 °F 46.4 °F 87% 30.27 in 10.0 mi Calm Calm - N/A   Clear
9:15 PM 50.0 °F 48.2 °F 94% 30.28 in 10.0 mi Calm Calm - N/A   Clear
9:35 PM 46.4 °F 46.4 °F 100% 30.28 in 10.0 mi Calm Calm - N/A   Clear
9:55 PM 48.2 °F 48.2 °F 100% 30.28 in 10.0 mi Calm Calm - N/A   Clear
10:15 PM 46.4 °F 46.4 °F 100% 30.28 in 10.0 mi Calm Calm - N/A   Clear
10:35 PM 44.6 °F 44.6 °F 100% 30.28 in 7.0 mi Calm Calm - N/A   Clear
10:55 PM 44.6 °F 44.6 °F 100% 30.28 in 7.0 mi Calm Calm - N/A   Clear
11:15 PM 44.6 °F 44.6 °F 100% 30.28 in 10.0 mi Calm Calm - N/A   Clear
11:55 PM 42.8 °F 42.8 °F 100% 30.28 in 5.0 mi Calm Calm - N/A   Clear